Location: Lane
(33.5226°N, 79.8788°W)
Time: 16:05:51
(UTC+00:00)

Vanguard 1 - All Passes

Search period start: 26 September 2022 00:00
Search period end: 06 October 2022 00:00
Orbit: 649 x 3832 km, 34.2° (Epoch: 25 September)

Date Brightness Start Highest point End Pass type
(mag) Time Alt. Az. Time Alt. Az. Time Alt. Az.
26 Sep - 00:51:04 10° W 00:57:10 83° SSW 01:01:37 10° ESE visible
26 Sep - 03:13:14 10° W 03:16:43 22° SSW 03:20:19 10° SSE visible
26 Sep - 17:58:39 10° SSW 18:13:11 30° SSE 18:22:28 10° E daylight
26 Sep - 20:22:08 10° SW 20:36:05 62° SSE 20:43:30 10° E daylight
26 Sep - 22:48:06 10° W 22:57:27 85° N 23:02:50 10° E daylight
27 Sep - 01:12:01 10° W 01:17:48 66° SSW 01:22:10 10° ESE visible
27 Sep - 03:34:58 10° WSW 03:37:12 14° SSW 03:39:31 10° S night (unlit)
27 Sep - 16:01:41 10° SSE 16:09:53 14° SE 16:16:47 10° ESE daylight
27 Sep - 18:18:17 10° SSW 18:34:15 38° SSE 18:43:48 10° E daylight
27 Sep - 20:43:11 10° WSW 20:56:57 73° SSE 21:04:09 10° E daylight
27 Sep - 23:09:22 10° W 23:18:14 84° N 23:23:27 10° E daylight
28 Sep - 01:32:59 10° W 01:38:21 48° SSW 01:42:35 10° SE visible
28 Sep - 16:18:12 10° S 16:31:08 20° SE 16:40:55 10° ESE daylight
28 Sep - 18:38:25 10° SW 18:55:17 47° SSE 19:04:50 10° E daylight
28 Sep - 21:04:27 10° WSW 21:17:47 83° SSE 21:24:45 10° E daylight
28 Sep - 23:30:35 10° W 23:39:00 88° N 23:44:03 10° E visible
29 Sep - 01:54:03 10° W 01:58:48 33° SSW 02:02:46 10° SE visible
29 Sep - 16:36:28 10° SSW 16:52:18 27° SSE 17:03:22 10° E daylight
29 Sep - 18:58:59 10° SW 19:16:16 57° SSE 19:25:40 10° E daylight
29 Sep - 21:25:51 10° W 21:38:39 90° NNE 21:45:22 10° E daylight
29 Sep - 23:51:45 10° W 23:59:43 82° SSW 00:04:38 10° ESE visible
30 Sep - 02:15:22 10° W 02:19:12 21° SW 02:22:34 10° SSE visible
30 Sep - 14:44:54 10° SSE 14:48:24 11° SE 14:51:43 10° SE daylight
30 Sep - 16:55:38 10° SSW 17:13:25 35° SSE 17:25:04 10° E daylight
30 Sep - 19:19:53 10° WSW 19:37:14 68° SSE 19:46:24 10° E daylight
30 Sep - 21:47:18 10° W 21:59:31 86° N 22:05:58 10° E daylight
01 Oct - 00:12:52 10° W 00:20:21 67° SSW 00:25:07 10° ESE visible
01 Oct - 02:37:24 10° WSW 02:39:31 13° SW 02:41:32 10° S visible
01 Oct - 14:57:50 10° S 15:09:38 17° SE 15:19:34 10° ESE daylight
01 Oct - 17:15:23 10° SSW 17:34:30 44° SSE 17:46:20 10° E daylight
01 Oct - 19:41:03 10° WSW 19:58:11 77° SSE 20:07:04 10° E daylight
01 Oct - 22:08:45 10° W 22:20:22 85° N 22:26:35 10° E daylight
02 Oct - 00:34:00 10° W 00:40:53 50° SSW 00:45:29 10° SE visible
02 Oct - 15:15:05 10° S 15:30:47 24° SE 15:43:05 10° E daylight
02 Oct - 17:35:37 10° SW 17:55:33 53° SSE 18:07:22 10° E daylight
02 Oct - 20:02:27 10° WSW 20:19:08 85° SSE 20:27:43 10° E daylight
02 Oct - 22:30:09 10° W 22:41:12 90° N 22:47:12 10° E daylight
03 Oct - 00:55:12 10° W 01:01:18 35° SSW 01:05:35 10° SSE visible
03 Oct - 15:33:37 10° SSW 15:51:52 31° SE 16:05:23 10° E daylight
03 Oct - 17:56:14 10° SW 18:16:36 63° SSE 18:28:13 10° E daylight
03 Oct - 20:23:59 10° W 20:40:06 89° N 20:48:22 10° E daylight
03 Oct - 22:51:30 10° W 23:01:59 82° SSW 23:07:45 10° ESE daylight
04 Oct - 01:16:38 10° W 01:21:35 23° SW 01:25:22 10° SSE visible
04 Oct - 13:40:14 10° SSE 13:47:50 12° SE 13:54:58 10° ESE daylight
04 Oct - 15:52:53 10° SSW 16:12:55 39° SE 16:27:03 10° E daylight
04 Oct - 18:17:11 10° WSW 18:37:39 72° SSE 18:49:00 10° ENE daylight
04 Oct - 20:45:36 10° W 21:01:04 86° N 21:09:00 10° E daylight
04 Oct - 23:12:47 10° WNW 23:22:38 68° SSW 23:28:13 10° ESE visible
05 Oct - 01:38:41 10° WSW 01:41:46 14° SW 01:44:24 10° S visible
05 Oct - 13:55:11 10° S 14:08:52 19° SE 14:21:01 10° E daylight
05 Oct - 16:12:42 10° SW 16:33:57 48° SSE 16:48:21 10° E daylight
05 Oct - 18:38:26 10° WSW 18:58:43 80° SSE 19:09:43 10° E daylight
05 Oct - 21:07:12 10° W 21:22:02 87° N 21:29:39 10° E daylight
05 Oct - 23:34:03 10° WNW 23:43:11 53° SSW 23:48:32 10° SE visible
